User: anonymous   Login
Location: New Plymouth
(39.0670°S, 174.0830°E)
Time: 15:16:12
(UTC+13:00)
Language:

Resurs 01 Rocket - Orbit

View from above orbital plane
View from above orbital plane
View from above satellite
View from above satellite

Ground track
Ground track

The orbit data is extracted from the following two-line orbital elements,

1 23343U 94074B   19080.76532265  .00000019  00000-0  10122-4 0  9993
2 23343  98.0647 130.9298 0007310 159.8731 315.5651 14.76769190311661
Epoch (UTC): 21 March 2019 18:22:03
Eccentricity: 0.0007310
inclination: 98.0647°
perigee height: 634 km
apogee height: 644 km
right ascension of ascending node: 130.9298°
argument of perigee: 159.8731°
revolutions per day: 14.76769190
mean anomaly at epoch: 315.5651°
orbit number at epoch: 31166

The dashed part of the orbit path shows where the satellite is in the earth's shadow,  

DLR